FW5647 Weather Reports


time (UTC)temp
C
wind
direction
speed
KPH
gust
KPH
rain 1hr
cm
rain 24hr
cm
rain mn
cm
humidity
%
barometer
mb
20260509190041 15 278 6.4 17.7 0.20 0.20 0.20 82 1003.0
20260509184538 14 259 11.3 30.6 0.20 0.20 0.20 75 1002.7
20260509183037 18 328 14.5 33.8 0.00 0.00 0.00 54 1002.6
20260509181537 19 245 12.9 40.2 0.00 0.00 0.00 54 1002.1
20260509180037 20 245 11.3 37.0 0.00 0.00 0.00 53 1002.1
20260509174534 19 289 14.5 30.6 0.00 0.00 0.00 53 1002.6
20260509173032 19 206 11.3 27.4 0.00 0.00 0.00 56 1002.5
20260509171533 19 183 11.3 25.7 0.00 0.00 0.00 56 1002.6
20260509170040 19 191 12.9 29.0 0.00 0.00 0.00 55 1002.7
20260509164536 18 162 12.9 27.4 0.00 0.00 0.00 57 1002.7
20260509163048 18 141 9.7 32.2 0.00 0.00 0.00 60 1002.8
20260509161534 18 281 6.4 24.1 0.00 0.00 0.00 59 1002.9
20260509160035 18 205 9.7 24.1 0.00 0.00 0.00 62 1003.1
20260509154533 17 34 6.4 24.1 0.00 0.00 0.00 65 1003.0
20260509153036 17 254 9.7 24.1 0.00 0.00 0.00 64 1003.0
20260509151536 16 252 12.9 30.6 0.00 0.00 0.00 64 1003.4
20260509150038 16 150 8.0 19.3 0.00 0.00 0.00 68 1003.4
20260509144534 16 196 8.0 22.5 0.00 0.00 0.00 71 1003.6
20260509143036 15 88 6.4 17.7 0.00 0.00 0.00 75 1003.6
20260509141537 15 207 6.4 20.9 0.00 0.00 0.00 77 1003.8
20260509140039 13 132 6.4 16.1 0.00 0.00 0.00 80 1003.9
20260509134548 12 117 4.8 16.1 0.00 0.00 0.00 84 1004.1
20260509133053 12 172 6.4 14.5 0.00 0.00 0.00 85 1004.6
20260509131534 12 119 3.2 16.1 0.00 0.00 0.00 88 1004.7
20260509130034 11 253 3.2 14.5 0.00 0.00 0.00 91 1005.0
20260509124538 10 235 4.8 19.3 0.00 0.00 0.00 92 1004.8
20260509123037 10 195 3.2 12.9 0.00 0.00 0.00 94 1004.7
20260509121539 10 154 4.8 14.5 0.00 0.00 0.00 95 1004.8
20260509120036 10 217 4.8 14.5 0.00 0.00 0.00 95 1004.8
20260509114550 9 230 3.2 11.3 0.00 0.00 0.00 95 1005.0
20260509113037 9 217 1.6 12.9 0.00 0.00 0.00 95 1004.9
20260509111536 9 238 1.6 11.3 0.00 0.00 0.00 95 1005.0
20260509110037 8 153 1.6 9.7 0.00 0.00 0.00 95 1004.8
20260509104536 8 0 1.6 9.7 0.00 0.00 0.00 95 1004.8
20260509103035 8 149 1.6 12.9 0.00 0.00 0.00 95 1004.9
20260509101534 8 238 1.6 6.4 0.00 0.00 0.00 95 1004.9
20260509100032 8 246 1.6 6.4 0.00 0.00 0.00 94 1005.0
20260509094537 8 0 0.0 3.2 0.00 0.00 0.00 94 1005.0
20260509093034 8 0 0.0 1.6 0.00 0.00 0.00 94 1005.1
20260509091536 8 0 0.0 1.6 0.00 0.00 0.00 93 1005.1
20260509090032 8 0 0.0 4.8 0.00 0.00 0.00 93 1005.2
20260509084539 8 119 0.0 3.2 0.00 0.00 0.00 93 1005.1
20260509083036 8 0 0.0 3.2 0.00 0.00 0.00 93 1005.2
20260509081534 8 174 0.0 6.4 0.00 0.00 0.00 93 1005.3
20260509080053 8 0 0.0 6.4 0.00 0.00 0.00 92 1005.6
20260509074534 8 200 0.0 3.2 0.00 0.00 0.00 92 1005.7
20260509073117 8 0 0.0 4.8 0.00 0.00 0.00 91 1005.6
20260509071531 8 0 0.0 1.6 0.00 0.00 0.00 91 1005.8
20260509070046 7 0 0.0 1.6 0.00 0.00 0.00 89 1005.9
20260509064534 8 0 0.0 0.0 0.00 0.00 0.00 89 1005.9
20260509063040 8 162 0.0 4.8 0.00 0.00 0.00 88 1006.2
20260509061550 8 0 0.0 1.6 0.00 0.00 0.00 87 1006.3
20260509060039 8 0 0.0 3.2 0.00 0.00 0.00 87 1006.5
20260509054538 8 0 0.0 1.6 0.00 0.00 0.00 87 1006.5
20260509053037 8 165 0.0 1.6 0.00 0.00 0.00 86 1006.7
20260509051545 8 0 0.0 0.0 0.00 0.00 0.00 85 1006.7
20260509050041 8 0 0.0 0.0 0.00 0.00 0.00 84 1006.9
20260509044538 9 0 0.0 1.6 0.00 0.00 0.00 84 1006.9
20260509043042 10 0 0.0 3.2 0.00 0.00 0.00 85 1007.1
20260509041543 10 0 0.0 3.2 0.00 0.00 0.00 85 1007.1
20260509040042 10 0 0.0 3.2 0.00 0.00 0.00 85 1007.3
20260509034533 9 158 0.0 0.0 0.00 0.00 0.00 83 1007.4
20260509033034 10 0 0.0 0.0 0.00 0.00 0.00 81 1007.2
20260509031538 10 0 0.0 1.6 0.00 0.00 0.00 79 1007.4
20260509030039 10 0 0.0 0.0 0.00 0.00 0.00 78 1007.5
20260509024534 11 0 0.0 3.2 0.00 0.00 0.00 76 1007.7
20260509023032 11 0 0.0 1.6 0.00 0.00 0.00 75 1007.7
20260509021532 11 297 0.0 1.6 0.00 0.00 0.00 75 1007.7
20260509020034 12 0 0.0 1.6 0.00 0.00 0.00 72 1007.3
20260509014533 13 0 0.0 4.8 0.00 0.00 0.00 71 1007.5
20260509013046 13 307 1.6 4.8 0.00 0.00 0.00 69 1007.2
20260509011536 13 134 0.0 8.0 0.00 0.00 0.00 66 1006.9
20260509010032 14 262 1.6 6.4 0.00 0.00 0.00 62 1006.9
20260509004559 15 105 1.6 4.8 0.00 0.00 0.00 53 1006.7
20260509003043 15 225 0.0 3.2 0.00 0.00 0.00 48 1006.7
20260509001536 16 264 3.2 8.0 0.00 0.00 0.00 46 1006.5
20260509000036 16 259 3.2 11.3 0.00 0.00 0.00 45 1006.5
20260508234534 17 255 4.8 11.3 0.00 0.00 0.00 42 1006.5
20260508233037 17 231 4.8 9.7 0.00 0.00 0.00 40 1006.5
20260508231537 17 321 4.8 16.1 0.00 0.00 0.00 40 1006.5
20260508230050 17 212 3.2 11.3 0.00 0.00 0.00 41 1006.6
20260508224537 17 331 4.8 19.3 0.00 0.00 0.00 39 1006.6
20260508223034 17 282 3.2 22.5 0.00 0.00 0.00 39 1006.6
20260508221537 18 293 3.2 11.3 0.00 0.00 0.00 40 1006.8
20260508220046 17 266 4.8 14.5 0.00 0.00 0.00 42 1007.0
20260508214546 17 252 4.8 22.5 0.00 0.00 0.00 40 1006.9
20260508213037 17 253 4.8 19.3 0.00 0.00 0.00 42 1007.0
20260508211536 18 309 8.0 16.1 0.00 0.00 0.00 41 1006.9
20260508210042 17 239 4.8 20.9 0.00 0.00 0.00 41 1007.1
20260508204541 17 271 6.4 19.3 0.00 0.00 0.00 38 1007.0
20260508203037 17 263 8.0 17.7 0.00 0.00 0.00 38 1007.2
20260508201537 17 241 8.0 20.9 0.00 0.00 0.00 38 1007.4
20260508200045 16 256 3.2 20.9 0.00 0.00 0.00 39 1007.7
20260508194535 17 256 9.7 20.9 0.00 0.00 0.00 39 1008.0
20260508193037 17 307 8.0 20.9 0.00 0.00 0.00 41 1008.2
20260508191544 16 310 6.4 24.1 0.00 0.00 0.00 39 1008.5